www.pogodaiklimat.ru

Погода и климат >> Архив погоды >> Словакия >> Нитра


ПОГОДА в Нитре

  • Прогноз погоды в Нитре
  • Монитор погоды в Нитре

АРХИВ ПОГОДЫ в Нитре

Время (UTC), дата Ветер
(напр.,м/с)
 
Видим.   Явления Облачность Т
(С)
Тd
(С)
f
(%)
Тe
(С)
Тes
(С)
Комфортность P
(гПа)
Po
(гПа)
Тmin
(С)
Tmax
(С)
R
(мм)
R24
(мм)
S
(см)
22 15.07 СЗ 3 н/о н/о +17.8 +8.9 56 +18 +18 1013.5 997.6
23 15.07 СЗ 3 н/о н/о +15.3 +10.5 73 +15 +15 1013.8 997.7
00 16.07 Ю 2 н/о н/о +15.9 +9.8 67 +16 +16 1013.8 997.8
01 16.07 СЗ 4 н/о н/о +13.0 +9.1 77 +11 +11 1013.9 997.7
02 16.07 С 2 н/о н/о +12.7 +8.6 76 +12 +12 1014.0 997.8
03 16.07 СЗ 3 н/о н/о +12.3 +8.4 77 +11 +11 1014.2 997.9
04 16.07 СЗ 2 н/о н/о +11.4 +8.1 80 +10 +10 1014.1 997.8
05 16.07 СЗ 3 н/о н/о +13.4 +8.0 70 +12 +12 1014.3 998.1
06 16.07 нст 1 15 км 1/0
[Ci fib]
+16.5 +9.2 62 +17 +23 1014.0 998.0 +11.4
07 16.07 20 км 1/0
[Ci fib]
+20.8 +8.8 46 1013.8 998.0
08 16.07 ЮЗ 2 20 км 1/1 1080 м
[Cu hum Ci fib]
+23.3 +8.2 38 +24 +35 комфорт 1013.6 997.9
09 16.07 З 4 20 км 3/1 1080 м
[Cu med, cong Ci fib]
+24.6 +9.0 37 +25 +34 комфорт 1013.1 997.5
10 16.07 З 4 20 км 4/3 1080 м
[Cu med, cong Ci fib]
+25.5 +9.4 36 +26 +34 жарко 1012.5 997.0
11 16.07 З 6 20 км 6/5 1080 м
[Cu med, cong Ci fib]
+25.6 +11.4 41 +27 +30 жарко 1012.1 996.6
12 16.07 З 8 20 км 6/5 1200 м
[Cu med, cong Ci fib]
+26.8 +10.5 36 +28 +29 жарко 1011.5 996.1
13 16.07 СЗ 7 20 км 6/6 1200 м
[Cu med, cong]
+26.8 +10.9 37 +28 +29 жарко 1011.3 995.9
14 16.07 СЗ 8 20 км 6/6 1380 м
[Cu med, cong]
+26.9 +11.4 38 +28 +29 жарко 1011.0 995.6
15 16.07 СЗ 9 20 км 4/4 1380 м
[Cu med, cong]
+26.4 +9.3 34 +27 +27 жарко 1010.7 995.3
16 16.07 СЗ 6 н/о н/о +26.2 +10.0 36 +27 +27 жарко 1010.4 995.0
17 16.07 СЗ 7 н/о н/о +25.4 +10.1 38 +26 +26 жарко 1010.5 995.0
18 16.07 СЗ 5 20 км 3/0
[Ci fib]
+24.0 +10.7 43 +25 +25 комфорт 1010.8 995.2 +27.6
19 16.07 СЗ 6 20 км ясно +20.7 +10.5 52 +22 +22 комфорт 1012.0 996.2
20 16.07 СЗ 5 20 км ясно +19.3 +9.2 52 +20 +20 1012.8 997.0
21 16.07 С 3 н/о н/о +17.7 +8.8 56 +18 +18 1012.9 997.0
22 16.07 СЗ 4 н/о н/о +16.0 +8.3 60 +15 +15 1013.1 997.1
23 16.07 СЗ 4 н/о н/о +14.1 +8.5 69 +13 +13 1013.8 997.6
00 17.07 СЗ 4 н/о н/о +13.7 +8.1 69 +12 +12 1013.8 997.6
01 17.07 СЗ 2 н/о н/о +13.4 +8.5 72 +13 +13 1013.8 997.6
02 17.07 СЗ 2 н/о н/о +11.8 +8.1 78 +11 +11 1013.8 997.5
03 17.07 СЗ 4 н/о н/о +11.5 +8.2 80 +9 +9 1013.9 997.6
04 17.07 СЗ 2 н/о н/о +11.7 +8.4 80 +11 +11 1014.0 997.7
05 17.07 СЗ 3 н/о н/о +15.6 +9.3 66 +15 +15 1014.0 997.9
06 17.07 СЗ 4 35 км 5/0
[Ac lent Ci fib]
+17.4 +9.3 59 +17 +20 1014.0 998.0 +11.4
07 17.07 СЗ 5 35 км 5/1 900 м
[Cu hum Ac lent Ci fib]
+18.9 +9.4 54 +19 +22 1013.9 998.0
08 17.07 СЗ 4 40 км 5/1 1050 м
[Cu hum Ac lent Ci fib]
+21.1 +9.1 46 +22 +28 комфорт 1013.2 997.4
09 17.07 СЗ 4 40 км 4/1 1200 м
[Cu hum Ac lent Ci fib]
+22.1 +9.6 45 +24 +31 комфорт 1013.0 997.3
10 17.07 СЗ 6 40 км 4/1 1350 м
[Cu hum Ac lent Ci fib]
+23.2 +8.9 40 +25 +30 комфорт 1012.6 997.0
11 17.07 СЗ 5 40 км 4/1 1500 м
[Cu hum Ac lent Ci fib]
+24.1 +8.5 37 +25 +32 комфорт 1012.3 996.7
12 17.07 З 6 40 км 3/1 1500 м
[Cu hum Ac lent Ci fib]
+25.1 +9.0 36 +26 +31 жарко 1011.8 996.3
13 17.07 СЗ 7 40 км 4/1 1500 м
[Cu hum Ac lent Ci fib]
+25.3 +9.2 36 +26 +29 жарко 1011.5 996.0
14 17.07 СЗ 7 40 км 4/1 1500 м
[Cu hum Ac lent Ci fib]
+25.9 +8.0 32 +26 +28 жарко 1011.3 995.8
15 17.07 СЗ 5 40 км 4/1 2000 м
[Cu hum Ac lent Ci fib]
+26.2 +9.1 34 +27 +29 жарко 1010.8 995.4
16 17.07 СЗ 5 40 км 4/1 2000 м
[Cu hum Ac lent Ci fib]
+26.0 +8.5 33 +26 +28 жарко 1010.5 995.0
17 17.07 СЗ 5 40 км 4/1 2000 м
[Cu hum Ac lent Ci fib]
+25.6 +8.6 34 +26 +26 жарко 1010.5 995.0
18 17.07 С 3 35 км 4/0
[Ac lent Ci fib]
+24.6 +9.0 37 +25 +25 комфорт 1010.6 995.1 +26.2
19 17.07 С 3 40 км 5/0
[Ac lent Ci fib]
+22.2 +8.7 42 +24 +24 комфорт 1011.0 995.3
20 17.07 З 2 40 км 5/0
[Ac lent Ci fib]
+18.6 +8.9 53 +20 +20 1011.5 995.6
21 17.07 н/о н/о +17.6 +8.7 56 1011.7 995.8
22 17.07 нст 1 н/о н/о +15.3 +8.5 64 +16 +16 1011.8 995.8
23 17.07 нст 1 н/о н/о +15.0 +9.2 68 +16 +16 1012.4 996.3
00 18.07 СЗ 4 н/о н/о +16.2 +10.1 67 +16 +16 1012.9 996.9
01 18.07 З 2 н/о н/о +15.7 +12.4 81 +16 +16 1012.3 996.3
02 18.07 СЗ 4 н/о н/о +15.6 +12.9 84 +15 +15 1012.7 996.7
03 18.07 С 3 н/о н/о +15.1 +13.8 92 +14 +14 1012.8 996.8
04 18.07 нст 2 н/о н/о +15.0 +13.5 91 +15 +15 1012.9 996.8
05 18.07 СВ 2 н/о н/о +15.7 +12.8 83 +16 +16 1012.3 996.3
06 18.07 нст 2 35 км слаб. дождь 8/0
[Ac cast]
+16.5 +14.2 86 +17 +19 1012.8 996.8 +14.2 7
07 18.07 30 км в посл. час дождь 5/0
[Ac cast]
+18.4 +13.9 75 1013.1 997.2
08 18.07 В 3 30 км 3/0
[Ac lent Ci fib]
+21.6 +11.6 53 +24 +32 комфорт 1012.9 997.2
09 18.07 нст 2 35 км {дождь} 3/1 1050 м
[Cu hum Ac cast Ci fib]
+23.4 +13.0 52 +26 +38 жарко 1013.0 997.4
10 18.07 35 км 4/1 1200 м
[Cu med, cong Ac cast Ci fib]
+24.8 +11.8 44 1012.6 997.1
11 18.07 35 км 5/3 1350 м
[Cu med, cong Ac lent Ci fib]
+26.1 +11.5 40 1012.5 997.0
12 18.07 нст 1 35 км {дождь} 4/1 1500 м
[Cu med, cong Ac lent Ci fib]
+27.3 +11.0 36 +28 +42 жарко 1012.0 996.6 0.0
13 18.07 35 км 4/3 1500 м
[Cu med, cong Ac lent Ci fib]
+27.2 +10.9 36 1011.7 996.3
14 18.07 ЮЗ 3 35 км 4/3 1500 м
[Cu med, cong Ac lent Ci fib]
+27.8 +11.4 36 +29 +34 жарко 1011.4 996.0
15 18.07 З 3 35 км 4/4 1500 м
[Cu med, cong Ac lent]
+27.9 +10.6 34 +28 +32 жарко 1011.2 995.8
16 18.07 З 3 35 км 4/3 2000 м
[Cu med, cong Ac lent Ci fib]
+27.7 +10.4 34 +28 +30 жарко 1011.2 995.8
17 18.07 СЗ 4 35 км 4/3 1500 м
[Cu med, cong Ac lent Ci fib]
+26.6 +10.8 37 +27 +28 жарко 1011.2 995.8
18 18.07 штиль 0 35 км 3/1 1500 м
[Sc diur, vesp Ac lent Ci fib]
+26.2 +11.6 40 +27 +28 жарко 1011.8 996.3 +28.1 0.0
19 18.07 В 5 35 км 3/1 1500 м
[Sc diur, vesp Ac lent]
+21.8 +13.4 59 +25 +25 комфорт 1012.9 997.2
20 18.07 30 км 1/1 2000 м
[Sc diur, vesp]
+19.5 +13.0 66 1013.9 998.1
21 18.07 н/о н/о +18.6 +13.2 71 1014.4 998.5
22 18.07 н/о н/о +18.0 +12.5 70 1014.4 998.5
23 18.07 н/о н/о +15.8 +12.6 81 1015.1 999.0
00 19.07 нст 1 н/о н/о +15.5 +12.1 80 +16 +16 1015.3 999.2
01 19.07 н/о н/о +16.2 +12.0 76 1015.3 999.3
02 19.07 н/о н/о +15.8 +12.2 79 1015.4 999.3
03 19.07 н/о н/о +15.4 +12.2 81 1015.5 999.4
04 19.07 н/о н/о +15.4 +12.4 82 1015.7 999.6
05 19.07 30 км 1/0
[Ac lent Ci fib]
+17.6 +13.3 76 1015.9 999.9
06 19.07 В 3 30 км 1/0
[Ac lent Ci fib]
+19.9 +13.1 65 +22 +26 комфорт 1015.9 1000.1 +15.0
07 19.07 В 3 30 км 6/0
[Ac lent Ci]
+21.7 +13.9 61 +25 +30 комфорт 1015.9 1000.2
08 19.07 30 км 9/0
[Cs]
+24.1 +14.8 56 1015.7 1000.1
09 19.07 ЮВ 3 40 км 8/0
[Cs]
+26.1 +14.3 48 +28 +39 жарко 1015.7 1000.2
10 19.07 Ю 2 40 км 6/1 1500 м
[Cu med, cong Cs]
+27.1 +13.8 44 +29 +43 жарко 1015.6 1000.1
11 19.07 Ю 5 40 км 5/1 1500 м
[Cu med, cong Cs]
+28.3 +13.8 41 +30 +38 жарко 1015.1 999.7
12 19.07 нст 2 40 км 5/3 1500 м
[Cu med, cong Ac lent Ci fib]
+29.4 +12.4 35 +30 +40 жарко 1014.5 999.2
13 19.07 ЮЗ 3 40 км 6/4 1500 м
[Cu med, cong Ac lent Ci fib]
+30.0 +12.5 34 +31 +37 жарко 1014.1 998.8
14 19.07 ЮЗ 6 30 км 8/3 1500 м
[Cu med, cong Ac cuf Cs]
+29.9 +11.5 32 +30 +32 жарко 1013.8 998.5
15 19.07 З 6 35 км 9/3 1500 м
[Cu med, cong Ac cuf Cs]
+29.1 +10.3 31 +29 +30 жарко 1013.8 998.5
16 19.07 З 7 35 км 9/3 1500 м
[Cb cap Ac cuf Cs]
+26.2 +12.7 43 +28 +28 жарко 1014.4 998.9
17 19.07 З 3 35 км 9/1 1500 м
[Cb cap Ac cuf Cs]
+26.4 +12.5 42 +28 +28 жарко 1014.5 999.0
18 19.07 З 1 35 км 9/1 1500 м
[Sc diur, vesp Ac cuf Cs]
+26.4 +13.2 44 +28 +28 жарко 1014.7 999.2 +30.2
19 19.07 З 1 35 км 9/1 1500 м
[Sc diur, vesp Ac As Ci sp]
+24.7 +13.6 50 +27 +27 жарко 1015.1 999.5
20 19.07 ЮВ 2 30 км 9/0
[Ac As]
+22.0 +16.1 69 +26 +26 душно 1015.6 999.9
21 19.07 В 3 н/о н/о +22.5 +13.6 57 +26 +26 жарко 1016.0 1000.3
22 19.07 н/о н/о +20.6 +13.6 64 1016.6 1000.8
23 19.07 н/о н/о +20.4 +14.5 69 1016.7 1000.9
00 20.07 нст 1 н/о н/о +20.1 +13.8 67 +23 +23 комфорт 1016.7 1000.9
01 20.07 н/о н/о +19.8 +14.4 71 1016.6 1000.7
02 20.07 н/о н/о +19.5 +13.7 69 1016.6 1000.7
03 20.07 н/о н/о +18.9 +13.8 72 1016.6 1000.7
04 20.07 н/о н/о +18.6 +14.3 76 1016.7 1000.8
05 20.07 30 км 9/1 1500 м
[Cu med, cong Ac As]
+19.5 +13.9 70 1017.1 1001.2
06 20.07 нст 2 35 км 6/1 1500 м
[Cu med, cong Ac As]
+21.6 +14.3 63 +25 +27 комфорт 1017.0 1001.2 +18.5
07 20.07 В 4 35 км 6/0
[Ac trans Ci]
+24.4 +14.2 53 +27 +31 жарко 1016.8 1001.2
08 20.07 ЮВ 3 35 км 6/1 1500 м
[Cu med, cong Ac cast Ci fib]
+26.4 +14.9 49 +29 +35 жарко 1016.8 1001.3
09 20.07 ЮВ 3 35 км 9/1 1500 м
[Cu med, cong Ac cast Ci fib]
+28.2 +15.5 46 +31 +37 душно 1016.7 1001.3
10 20.07 Ю 3 40 км 8/1 1500 м
[Cu med, cong Ac cast Ci fib]
+29.5 +16.0 44 +33 +40 душно 1016.3 1001.0
11 20.07 Ю 6 40 км 6/4 1500 м
[Cu med, cong Ac lent Ci fib]
+30.5 +16.2 42 +34 +37 очень
душно
1015.9 1000.6
12 20.07 Ю 6 40 км 9/5 1500 м
[Cu med, cong Ac lent Ci fib]
+30.5 +16.2 42 +34 +35 очень
душно
1015.2 999.9
13 20.07 ЮЗ 4 40 км 9/5 1500 м
[Cu med, cong Ci fib]
+31.5 +15.1 37 +34 +38 душно 1014.9 999.7
14 20.07 ЮЗ 5 40 км 9/5 1500 м
[Cu med, cong Ac cuf Ci fib]
+32.1 +13.8 33 +33 +35 жарко 1014.6 999.4
15 20.07 ЮЗ 5 40 км 8/4 1500 м
[Cu med, cong Ac cuf Ci fib]
+32.2 +10.9 27 +32 +33 жарко 1014.3 999.1
16 20.07 Ю 4 40 км 9/4 1500 м
[Cb cap Ac cuf Ci fib]
+31.8 +14.0 34 +33 +34 жарко 1014.1 998.9
17 20.07 Ю 4 40 км 9/3 1500 м
[Cb calv Ac cuf Ci fib]
+31.2 +12.6 32 +32 +32 жарко 1014.1 998.9
18 20.07 ЮВ 2 40 км 9/3 1500 м
[Cb calv Ac cuf Ci fib]
+29.2 +15.4 43 +32 +32 душно 1014.6 999.3 +32.6
19 20.07 СВ 3 40 км 8/1 1500 м
[Sc diur, vesp Ac lent Ci sp]
+25.6 +16.8 58 +29 +29 душно 1015.4 999.9
20 20.07 40 км 8/0
[Ac lent Ci fib]
+24.0 +16.3 62 1016.1 1000.5
21 20.07 н/о н/о +22.1 +15.9 68 1016.4 1000.7
22 20.07 н/о н/о +21.0 +15.8 72 1017.0 1001.2
23 20.07 н/о н/о +21.2 +15.5 70 1017.2 1001.4
00 21.07 нст 1 н/о н/о +20.5 +15.1 71 +24 +24 комфорт 1017.1 1001.3
01 21.07 н/о н/о +19.1 +15.4 79 1017.1 1001.2
02 21.07 н/о н/о +18.6 +15.7 83 1016.6 1000.7
03 21.07 н/о н/о +18.2 +15.8 86 1016.9 1001.0
04 21.07 н/о н/о +18.5 +15.9 85 1016.9 1001.0
05 21.07 26 км 6/0
[Ac cast Ci fib]
+20.1 +16.7 81 1017.2 1001.4
06 21.07 В 4 30 км 9/0
[Ac und Ci fib]
+23.7 +16.8 65 +27 +29 жарко 1016.9 1001.3 +18.2
07 21.07 В 5 25 км 9/0
[Ac As Ci fib]
+24.8 +16.5 60 +28 +30 жарко 1017.3 1001.7
08 21.07 В 2 25 км 9/0
[Ac As]
+25.9 +17.0 58 +30 +34 душно 1017.4 1001.9
09 21.07 ЮВ 2 30 км 9/1 1500 м
[Cu med, cong Ac As]
+26.1 +16.7 56 +30 +35 душно 1017.6 1002.1
10 21.07 28 км 9/1 1500 м
[Cu med, cong Ac As]
+27.2 +16.8 53 1017.9 1002.4
11 21.07 25 км 9/1 1500 м
[Cu med, cong Ac As]
+28.9 +18.1 52 1018.1 1002.7
12 21.07 СЗ 6 25 км 9/1 1500 м
[Cu med, cong Ac As]
+28.0 +17.3 52 +32 +34 душно 1018.4 1003.0
13 21.07 СЗ 9 30 км 9/1 1300 м
[Cb cap Ac As Ci ing]
+26.0 +17.4 59 +30 +31 душно 1018.9 1003.4
14 21.07 СЗ 7 40 км 9/1 1380 м
[Cb calv Ac cuf Cs]
+27.1 +15.8 50 +30 +32 душно 1018.5 1003.0
15 21.07 С 6 45 км 9/5 1380 м
[Cb calv Ac cuf Cs]
+24.5 +15.7 58 +28 +28 душно 1019.0 1003.4
16 21.07 С 5 45 км 9/5 1380 м
[Cu med, cong Ac cuf Cs]
+25.2 +14.1 50 +28 +28 жарко 1019.2 1003.6
17 21.07 СЗ 5 45 км 9/5 1500 м
[Sc diur, vesp Ac cuf Cs]
+24.9 +14.1 51 +27 +27 жарко 1019.3 1003.7
18 21.07 нст 2 45 км 9/4 1500 м
[Sc diur, vesp Ac cuf Ci sp]
+23.9 +14.3 55 +26 +26 жарко 1019.8 1004.1 +29.0
19 21.07 СЗ 4 45 км 6/3 1500 м
[Sc diur, vesp Ac cuf Ci sp]
+21.2 +14.6 66 +24 +24 комфорт 1020.3 1004.5
20 21.07 40 км 5/3 1500 м
[Sc diur, vesp Ac lent Ci sp]
+20.1 +14.9 72 1021.1 1005.2
21 21.07 н/о н/о +19.8 +15.0 74 1021.3 1005.4
22 21.07 СЗ 2 н/о н/о +18.1 +14.4 79 +19 +19 1021.3 1005.3
23 21.07 н/о н/о +17.7 +14.6 82 1021.4 1005.4
00 22.07 С 1 н/о н/о +16.6 +13.9 84 +17 +17 1021.8 1005.7
01 22.07 СЗ 4 н/о н/о +16.8 +14.8 88 +16 +16 1021.7 1005.6
02 22.07 СЗ 3 н/о н/о +15.4 +14.3 93 +15 +15 1021.6 1005.4
03 22.07 СЗ 2 н/о н/о +15.8 +14.8 94 +16 +16 1022.0 1005.9
04 22.07 З 2 н/о н/о +15.5 +14.7 95 +15 +15 1022.5 1006.3
05 22.07 30 км 8/0
[Ac lent Ci]
+18.5 +16.5 88 1022.5 1006.5
06 22.07 нст 2 30 км 8/0
[Ac lent Ci sp]
+21.9 +16.6 72 +26 +29 душно 1022.6 1006.8 +15.4
07 22.07 СЗ 3 35 км 4/0
[Ci sp]
+24.2 +16.0 60 +27 +34 жарко 1022.5 1006.8
08 22.07 СЗ 3 35 км 4/1 1500 м
[Cu med, cong Ac lent Ci sp]
+26.1 +15.5 52 +29 +36 жарко 1022.4 1006.8
09 22.07 СЗ 5 40 км 8/1 1380 м
[Cu med, cong Ac lent Cs]
+27.7 +12.5 39 +29 +33 жарко 1022.2 1006.7
10 22.07 С 4 45 км 9/3 1380 м
[Cu med, cong Cs]
+28.2 +11.8 36 +29 +36 жарко 1022.3 1006.8
11 22.07 С 6 50 км 9/4 1500 м
[Cu med, cong Cs]
+28.7 +11.8 35 +30 +33 жарко 1021.9 1006.4
12 22.07 СЗ 7 50 км 9/4 1500 м
[Cu med, cong Ac cuf Cs]
+30.0 +10.1 29 +30 +31 жарко 1021.4 1006.0
13 22.07 СЗ 6 50 км 9/4 1500 м
[Cu med, cong Ac cuf Cs]
+29.8 +10.9 31 +30 +32 жарко 1020.9 1005.5
14 22.07 СЗ 6 50 км 9/4 1500 м
[Cu med, cong Ac cuf Cs]
+29.3 +10.5 31 +29 +31 жарко 1020.6 1005.2
15 22.07 СЗ 5 50 км 9/3 1500 м
[Cu med, cong Ac cuf Cs]
+29.2 +11.3 33 +30 +31 жарко 1020.6 1005.2
16 22.07 СЗ 6 50 км 9/1 1500 м
[Cu hum Ac cuf Cs]
+28.7 +11.3 34 +29 +30 жарко 1020.4 1004.9
17 22.07 СЗ 6 50 км 9/1 1500 м
[Cu hum Ac lent Cs]
+28.0 +11.6 36 +29 +29 жарко 1020.0 1004.5
18 22.07 СЗ 4 50 км 9/1 1500 м
[Cu hum Ac lent Cs]
+26.8 +11.7 39 +28 +28 жарко 1020.3 1004.7 +30.2
20 22.07 С 2 40 км 6/0
[Ac lent Ci fib]
+22.2 +13.3 57 +25 +25 комфорт 1020.9 1005.1
21 22.07 СЗ 2 н/о н/о +20.5 +12.5 60 +23 +23 комфорт 1020.8 1004.9

 

Местоположение метеостанции Нитра (Словакия): широта 48.28 долгота 18.13 высота над уровнем моря 136 м.

В архиве по умолчанию представлена погода в Нитре за последнюю неделю. Архивные данные за месяц целиком и за предыдущие месяцы, начиная с января 2011 года, Вы можете получить, выбрав интересующий диапазон дат из раскрывающегося списка и нажав кнопку "Ввод!".


*Определитесь, кто Вы:
робот инопланетянин человек

Внимание! Время в таблицах - всемирное. Для получения местного времени необходимо прибавить поправку, которая равна 1 ч.

Смотрите также архив погоды в соседних городах и на ближайших метеорологических станциях:

Погода в Моховце (Словакия) (24 км)
Погода в Ясловске Богунице (Словакия) (41 км)
Погода в Пьештяни (Словакия) (44 км)
Погода в Гурбаново (Словакия) (46 км)
Погода в Дудинце (Словакия) (56 км)
Погода в Жьяр-над-Гроном (Словакия) (63 км)
Погода в Прьевидзе (Словакия) (65 км)
Погода в Тате (Венгрия) (69 км)
Погода в Братиславе (Словакия) (69 км)
Погода в Дьере (Венгрия) (71 км)

Пояснения к столбцам:

Ветер - указаны скорость ветра в м/с - средняя за 10 мин, порывы в срок и между сроками (в фигурных скобках) и направление, откуда дует ветер: С - северный, СВ - северо-восточный, В - восточный, ЮВ - юго-восточный, Ю - южный, ЮЗ - юго-западный, З - западный, СЗ - северо-западный.
Видимость - горизонтальная дальность видимости в метрах или километрах. При видимости от 1 до 10 км при отсутствии осадков обычно наблюдается дымка, при ухудшении видимости до 1 км и менее - туман. В сухую погоду видимость может ухудшаться дымом, пылью или мглою.
Явления - указаны атмосферные явления, наблюдавшиеся в срок или в последний час перед сроком; фигурными скобками обозначены явления, наблюдавшиеся между сроками (за 1-3 часа до срока); квадратными скобками обозначены град или гололедные отложения с указанием их диаметра в мм.
Облачность - указаны через наклонную черту общая и нижняя облачность в баллах и высота нижней границы облаков в метрах; квадратными скобками обозначены формы облаков: Ci - перистые, Cs - перисто-слоистые, Cc - перисто-кучевые, Ac - высококучевые, As - высокослоистые, Sc - слоисто-кучевые, Ns - слоисто-дождевые, Cu - кучевые, Cb - кучево-дождевые. Подробнее классификацию облаков см. в Атласе облаков (PDF).
T - Температура воздуха - температура, измеренная на высоте 2 м над землей.
Td - Температура точки росы - температура, при понижении до которой содержащийся в воздухе водяной пар достигнет насыщения.
f - Относительная влажность воздуха - влажноcть воздуха, измеренная на высоте 2 м над землей.
Te - Эффективная температура - температура, которую ощущает одетый по сезону человек в тени. Характеристика душности погоды. При расчете учитывается влияние влажности воздуха и скорости ветра на теплоощущения человека.
Tes - Эффективная температура на солнце - температура, которую ощущает человек, с поправкой на солнечный нагрев. Характеристика знойности погоды. Зависит от высоты солнца над горизонтом, облачности и скорости ветра. Ночью, в пасмурную погоду, а также при ветре 12 м/с и более поправка равна нулю.
P - Атмосферное давление - приведенное к уровню моря атмосферное давление.
Po - Атмосферное давление - измеренное на уровне метеостанции атмосферное давление.
Tmin - Минимальная температура - минимум температуры воздуха на высоте 2 м над землей.
Tmax - Максимальная температура - максимум температуры воздуха на высоте 2 м над землей.
R - Количество осадков - Количество выпавших осадков за период времени, мм. При наведении курсора мыши на число - период времени, за который выпало указанное количество осадков.
R24 - Количество осадков - Количество выпавших осадков за 24 часа, мм.
S - Снежный покров - Высота снежного покрова, см. При наведении курсора мыши на число - состояние снежного покрова и степень покрытия местности в баллах.